Flag for China Weather past 2 weeks in Xiamen, Fujian, China

Now
86 °F

Broken clouds.


Feels Like: 92 °F
Forecast: 76 / 83 °F
Wind: 13 mph from Northeast

Location: Xiamen Airport

Current Time: Sep 20, 2014 at 6:04:39 PM

Latest Report: Sep 20, 2014 at 5:00 PM


Visibility: N/A

Pressure: 29.59 "Hg

Humidity: 62%

Dew point: 72 °F

Location of XiamenLocation

Historic Weather in Xiamen — Graph

°F

Xiamen temperature yesterday

Maximum temperature yesterday: 95 °F (at 1:00 PM)
Minimum temperature yesterday: 84 °F (at 3:00 AM)
Average temperature yesterday: 88 °F

Past Weeks' High & Low Weather Summary

 TemperatureHumidityPressure
High95 °F (Sep 6, 2:00 PM)94% (Sep 8, 5:00 AM)29.95 "Hg (Sep 8, 5:00 AM)
Low81 °F (Sep 6, 4:00 AM)47% (Sep 19, 10:00 AM)29.56 "Hg (Sep 20, 3:00 PM)
Average87 °F75%29.77 "Hg
* Reported Sep 5 5:00 PM — Sep 20 5:00 PM, Xiamen, Weather by CustomWeather, © 2014

Note: Actual official high and low records may vary slightly from our data, if they occured in-between our weather recording intervals... More about our weather records

Advertising

Xiamen weather history for previous 24 hours

 ConditionsComfort  
Time TempWeatherWind HumidityBarometerVisibility
5:00 PM
Sep 20
86 °FBroken clouds.13 mph62%29.59 "HgN/A
4:00 PM88 °FBroken clouds.10 mph62%29.56 "HgN/A
3:00 PM88 °FPartly sunny.13 mph62%29.56 "HgN/A
2:00 PM90 °FPartly sunny.13 mph55%29.59 "HgN/A
1:00 PM88 °FOvercast.13 mph59%29.62 "HgN/A
12:00 PM88 °FPartly sunny.15 mph59%29.65 "HgN/A
11:00 AM86 °FMostly cloudy.13 mph66%29.65 "HgN/A
10:00 AM84 °FPartly sunny.10 mph70%29.68 "HgN/A
9:00 AM84 °FPartly sunny.10 mph70%29.65 "HgN/A
8:00 AM84 °FPartly sunny.10 mph70%29.65 "HgN/A
7:00 AM82 °FLight rain. Partly sunny.8 mph74%29.62 "HgN/A
6:00 AM82 °FMostly cloudy.15 mph74%29.62 "HgN/A
5:00 AM84 °FPassing clouds.13 mph66%29.59 "HgN/A
4:00 AM84 °FPassing clouds.10 mph70%29.59 "HgN/A
3:00 AM82 °FPassing clouds.13 mph74%29.62 "HgN/A
2:00 AM84 °FPassing clouds.10 mph66%29.62 "HgN/A
1:00 AM84 °FPassing clouds.13 mph70%29.65 "HgN/A
12:00 AM84 °FPassing clouds.13 mph70%29.68 "HgN/A
11:00 PM
Sep 19
84 °FPassing clouds.15 mph70%29.68 "HgN/A
10:00 PM84 °FPassing clouds.10 mph74%29.68 "HgN/A
9:00 PM86 °FPassing clouds.17 mph66%29.68 "HgN/A
8:00 PM86 °FPartly cloudy.8 mph70%29.68 "HgN/A
7:00 PM86 °FPassing clouds.17 mph70%29.65 "HgN/A
6:00 PM88 °FPassing clouds.10 mph75%29.62 "HgN/A
Weather by CustomWeather, © 2014

See weather overviewHow to use our weather pages